Lid_Strength_Index
4 4 4 4 3 3 3 2 2 2 2 1 1 1 1 0 0 1 1 0 1 1 1 0 -1 -1 -1 -1 -1 -1 -1 -0 -0
5 4 4 4 3 3 2 2 2 2 2 1 1 1 1 1 0 0 1 0 0 0 -0 -0 -1 -1 -1 -1 -1 -1 -1 -0 -0
5 4 4 4 3 3 2 2 2 1 1 1 1 1 1 1 1 1 0 0 0 -0 -0 -1 -0 -0 -0 -1 -1 -1 -1 -0 -1
5 4 4 4 3 3 2 2 2 2 1 1 1 1 1 1 1 1 1 0 0 0 -0 -0 -0 -0 -0 -0 -0 -1 -0 -0 -0
4 4 4 3 3 3 3 2 2 2 2 2 1 1 1 1 1 1 0 4 0 -0 -0 -0 -0 -0 -0 -0 -0 -1 -0 0 -0
4 4 4 4 3 3 3 3 2 2 2 2 1 1 1 1 1 1 2 1 0 -0 -0 -0 -0 -0 0 0 -0 -0 -0 -0 -0
4 4 4 4 4 3 3 3 2 2 2 1 1 1 1 1 1 1 1 2 2 1 0 0 0 0 0 0 0 -0 -0 -0 -0
5 5 4 4 4 4 3 3 3 2 2 1 1 1 1 2 1 0 1 2 2 1 1 1 1 0 0 0 0 0 -0 -0 0
5 5 4 4 4 3 3 3 3 2 2 2 1 2 2 1 1 1 1 2 1 1 2 1 1 1 1 1 1 1 1 0 0
5 5 4 4 4 3 3 3 2 2 2 1 2 2 2 1 1 1 2 2 2 2 3 2 1 1 1 1 0 2 2 1 0
5 4 4 3 3 3 2 2 2 1 1 2 2 2 2 1 1 1 1 1 2 2 1 2 1 1 1 1 0 3 3 2 -0
3 3 3 3 2 2 2 2 2 2 2 2 2 2 2 1 1 1 2 2 3 2 1 1 1 1 0 1 0 4 4 1 0
3 3 3 3 2 2 2 2 2 2 2 2 2 2 2 1 1 1 2 2 3 1 1 1 1 1 1 1 1 3 4 1 0
3 3 3 2 2 3 2 2 2 3 2 3 2 1 1 1 1 1 3 2 1 1 1 1 2 2 1 1 1 0 4 5 0
4 4 3 3 3 3 2 2 2 3 3 2 1 1 2 2 1 1 1 2 1 1 1 2 2 2 2 1 0 4 5 5 5
4 4 4 3 3 3 2 2 2 3 2 2 2 2 2 2 1 1 1 1 2 2 1 2 2 2 3 2 1 0 7 7 6
4 3 3 3 3 3 3 2 2 2 2 1 2 2 2 2 2 2 1 1 1 2 2 2 2 2 3 2 1 1 1 1 2
4 3 3 3 3 3 3 2 2 1 1 1 2 2 2 2 2 2 3 5 3 1 1 2 2 2 2 2 2 1 3 3 1
3 4 3 3 3 3 3 2 2 1 1 1 2 2 2 2 2 2 3 3 5 11 10 11 11 10 4 3 8 10 10 10 11
4 3 3 3 3 3 2 2 2 1 1 1 1 2 2 2 3 2 2 2 2 3 7 12 13 12 11 8 8 10 10 11 11